Quincy, IL

5:43 AM CST on February 10, 2016 (GMT -0600)
S 28th Street | | Change Station
CLOSE
Current Station
Personal Weather Station
Location: Quincy, IL
Elevation: 610 ft
Nearby Weather Stations

Elev 610 ft 39.91 °N, 91.37 °W | Updated 18 seconds ago

Partly Cloudy
Partly Cloudy
12.7 °F
Feels Like 7 °F
N
3.1
Wind Variable Wind from West
Gusts 3.1 mph

Today
High -- | Low -- °F
--% Chance of Precip.
Yesterday
High -- | Low -- °F
Precip. -- in
Pressure 30.17 in
Visibility 10.0 miles
Clouds Clear
Windchill 7 °F
Dew Point -8 °F
Humidity 38%
Rainfall 0.00 in
Snow Depth Not available.
7:04 AM 5:34 PM
Waxing Crescent, 5% visible
METAR KUIN 101054Z AUTO 28005KT 10SM CLR M12/M16 A3013 RMK AO2 SLP216 T11171156
Pressure 30.17 in
Visibility 10.0 miles
Clouds Clear
Windchill 7 °F
Dew Point -8 °F
Humidity 38%
Rainfall 0.00 in
Snow Depth Not available.
7:04 AM 5:34 PM
Waxing Crescent, 5% visible
METAR KUIN 101054Z AUTO 28005KT 10SM CLR M12/M16 A3013 RMK AO2 SLP216 T11171156

10-Day Weather Forecast

Almanac

Astronomy

Feb. 10, 2016 Rise Set
Actual Time
Civil Twilight
Nautical Twilight
Astronomical Twilight
Moon
Length of Visible Light
Length of Day
Tomorrow will be .
, % of the Moon is Illuminated

Today's Extremes

State Highs State Lows

Community

WunderPhotos

Upload Photos

1,891,830 photos uploaded!

WunderBlog® & News

Nearby

Air Quality

  Air Quality AQ Index Pollutant
Not available.

Snow Depth

Station Depth Elevation

Earthquake Activity

City Distance Mag. Time & Date
Minimum magnitude displayed is 2.5.

Coastal Water Temperatures

Place Temperature

Stations

Nearby Weather Stations

Station Location Temp. Windchill Dew Point Humidity Wind Precip. Elev Updated Type
                   

Watches & Warnings

There are currently no watches in effect.